Location: Bismarck
(46.7731°N, 100.8200°W)
Time: 22:55:13
(UTC-06:00)

ISS - All Passes

Search period start: 22 February 2018 00:00
Search period end: 04 March 2018 00:00
Orbit: 402 x 407 km, 51.6° (Epoch: 23 February)

Date Brightness Start Highest point End Pass type
(mag) Time Alt. Az. Time Alt. Az. Time Alt. Az.
22 Feb - 08:59:44 10° SW 09:02:53 48° SSE 09:06:05 10° ENE daylight
22 Feb - 10:36:17 10° W 10:39:25 44° NNW 10:42:35 10° ENE daylight
22 Feb - 12:13:19 10° WNW 12:16:22 34° N 12:19:24 10° ENE daylight
22 Feb - 13:49:51 10° WNW 13:53:08 81° NNE 13:56:24 10° ESE daylight
22 Feb - 15:26:57 10° W 15:29:17 18° SW 15:31:37 10° S daylight
23 Feb - 08:07:55 10° SSW 08:10:47 28° SE 08:13:39 10° E daylight
23 Feb - 09:43:52 10° WSW 09:47:06 59° NNW 09:50:21 10° ENE daylight
23 Feb - 11:20:57 10° WNW 11:23:59 33° N 11:26:59 10° ENE daylight
23 Feb - 12:57:38 10° WNW 13:00:51 55° NNE 13:04:05 10° E daylight
23 Feb - 14:34:17 10° WNW 14:37:13 31° SW 14:40:08 10° SSE daylight
24 Feb - 07:16:32 10° S 07:18:43 17° SE 07:20:55 10° E daylight
24 Feb - 08:51:33 10° WSW 08:54:49 87° NW 08:58:07 10° ENE daylight
24 Feb - 10:28:32 10° WNW 10:31:35 35° N 10:34:38 10° ENE daylight
24 Feb - 12:05:22 10° WNW 12:08:31 42° NNE 12:11:39 10° E daylight
24 Feb - 13:41:53 10° WNW 13:45:04 52° SSW 13:48:16 10° SE daylight
25 Feb - 07:59:22 10° SW 08:02:36 58° SSE 08:05:50 10° ENE daylight
25 Feb - 09:36:03 10° W 09:39:12 40° NNW 09:42:19 10° ENE daylight
25 Feb - 11:13:04 10° WNW 11:16:08 35° N 11:19:11 10° ENE daylight
25 Feb - 12:49:34 10° WNW 12:52:51 86° SSW 12:56:07 10° ESE daylight
25 Feb - 14:26:56 10° W 14:28:54 15° SW 14:30:54 10° S daylight
26 Feb - 07:07:24 10° SSW 07:10:24 34° SE 07:13:25 10° ENE daylight
26 Feb - 08:43:36 10° W 08:46:49 52° NNW 08:50:02 10° ENE daylight
26 Feb - 10:20:41 10° WNW 10:23:43 33° N 10:26:43 10° ENE daylight
26 Feb - 11:57:18 10° WNW 12:00:34 63° NNE 12:03:47 10° ESE daylight
26 Feb - 13:34:04 10° W 13:36:50 25° SW 13:39:36 10° SSE daylight
27 Feb - 06:15:48 10° S 06:18:17 20° SE 06:20:47 10° E visible
27 Feb - 07:51:11 10° WSW 07:54:28 76° NNW 07:57:45 10° ENE daylight
27 Feb - 09:28:14 10° WNW 09:31:16 34° N 09:34:18 10° ENE daylight
27 Feb - 11:05:01 10° WNW 11:08:12 46° NNE 11:11:22 10° E daylight
27 Feb - 12:41:33 10° WNW 12:44:41 43° SW 12:47:48 10° SE daylight
28 Feb - 05:24:57 10° SSE 05:26:13 12° SE 05:27:30 10° ESE visible
28 Feb - 06:58:55 10° SW 07:02:11 69° SSE 07:05:27 10° ENE daylight
28 Feb - 08:35:43 10° W 08:38:50 38° N 08:41:56 10° ENE daylight
28 Feb - 10:12:41 10° WNW 10:15:47 37° N 10:18:51 10° E daylight
28 Feb - 11:49:10 10° WNW 11:52:27 73° SSW 11:55:42 10° SE daylight
28 Feb - 13:26:57 10° WSW 13:28:25 12° SW 13:29:54 10° SSW daylight
01 Mar - 06:06:50 10° SW 06:09:56 41° SE 06:13:03 10° ENE visible
01 Mar - 07:43:13 10° W 07:46:25 47° NNW 07:49:36 10° ENE daylight
01 Mar - 09:20:17 10° WNW 09:23:20 33° N 09:26:21 10° ENE daylight
01 Mar - 10:56:50 10° WNW 11:00:08 72° NNE 11:03:24 10° ESE daylight
01 Mar - 12:33:46 10° W 12:36:20 21° SW 12:38:53 10° S daylight
02 Mar - 05:15:02 10° SSW 05:17:45 24° SE 05:20:28 10° E visible
02 Mar - 06:50:45 10° WSW 06:54:01 66° NNW 06:57:16 10° ENE visible
02 Mar - 08:27:49 10° WNW 08:30:51 33° N 08:33:52 10° ENE daylight
02 Mar - 10:04:32 10° WNW 10:07:45 50° NNE 10:10:57 10° E daylight
02 Mar - 11:41:07 10° WNW 11:44:10 36° SW 11:47:11 10° SSE daylight
03 Mar - 04:23:46 10° S 04:25:37 14° SE 04:27:30 10° E visible
03 Mar - 05:58:22 10° WSW 06:01:39 82° SSE 06:04:57 10° ENE visible
03 Mar - 07:35:17 10° WNW 07:38:22 36° N 07:41:26 10° ENE daylight
03 Mar - 09:12:11 10° WNW 09:15:18 39° NNE 09:18:25 10° E daylight
03 Mar - 10:48:40 10° WNW 10:51:55 61° SSW 10:55:08 10° SE daylight
03 Mar - 12:27:24 10° SW 12:27:48 10° SW 12:28:12 10° SW daylight
